Location: Unspecified
(49.8670°N, 0.0000°E)
Time: 19:11:05
(UTC+00:00)

ISS - Pass Details

Date: 26 May 2019
Orbit: 408 x 418 km, 51.6° (Epoch: 17 June)

Event Time Altitude Azimuth Distance (km) Brightness Sun altitude
Rises 20:31:17 0° 271° (W) 2,351 0.9 -5.6°
Reaches altitude 10° 20:33:23 10° 275° (W) 1,491 -0.1 -5.9°
Maximum altitude 20:36:43 62° 357° (N) 474 -3.2 -6.3°
Drops below altitude 10° 20:40:03 10° 79° (E) 1,499 -1.3 -6.7°
Sets 20:42:10 0° 83° (E) 2,365 -0.3 -6.9°
